Wind_Speed
12 10 11 11 10 11 11 10 11 11 11 12 13 13 13 13 13 11 1 9 4 2 5 4 3 3 2 1 1 2 3 2 2 4 3 2 3 1 2 1 2 7 7 6 4 6 9 3 1 5 4 6 4 3
10 11 10 10 10 10 10 9 10 9 11 11 12 12 12 11 11 11 2 7 7 4 4 4 9 11 7 4 2 0 2 1 2 1 1 1 2 2 1 4 2 3 2 2 5 3 2 3 5 6 7 8 4 4
11 11 11 12 10 9 9 8 8 10 11 10 12 12 11 11 11 8 6 9 2 2 4 4 3 2 9 23 11 2 1 2 1 1 1 1 1 1 2 1 2 3 2 2 2 2 4 4 4 3 6 7 5 4
12 10 9 9 8 9 10 9 7 9 12 11 12 12 12 11 10 8 4 5 2 1 3 1 3 4 3 7 14 19 2 1 1 1 1 1 2 1 1 3 3 2 2 1 4 5 5 4 1 5 4 3 4 7
13 12 11 10 10 10 10 9 9 8 12 12 13 13 12 11 10 8 7 5 5 2 3 5 14 1 3 5 7 12 13 3 2 2 1 1 2 2 1 2 3 2 3 3 1 5 3 2 3 4 4 3 4 8
13 12 11 10 10 9 9 10 10 10 12 13 13 13 11 10 8 4 1 2 8 4 2 2 4 3 4 2 6 6 8 4 2 2 1 2 1 2 2 2 1 2 5 5 4 9 6 5 3 2 1 3 4 6
14 12 11 9 9 8 9 10 10 11 13 14 14 13 10 8 4 2 2 2 5 6 2 3 3 1 2 3 3 3 5 2 3 2 3 2 3 2 2 3 3 6 9 7 5 4 1 4 3 3 4 6 7 8
15 14 13 10 8 8 8 9 10 12 14 16 15 12 8 3 4 3 1 10 4 2 2 2 3 2 3 1 3 1 3 3 4 2 1 3 2 3 4 4 6 6 14 11 6 5 3 2 1 3 4 4 7 8
17 15 13 10 9 7 7 8 10 12 14 16 10 3 2 1 1 3 1 6 6 2 2 1 2 1 4 2 1 2 1 3 1 4 4 4 4 5 2 5 7 8 8 11 11 7 5 2 1 3 6 7 6 7
18 15 14 11 9 7 6 7 10 12 12 1 1 2 2 1 2 5 1 2 2 3 2 3 1 1 2 2 2 1 1 1 3 3 3 5 4 3 2 3 4 7 9 10 8 6 5 3 0 3 3 2 3 6
19 16 14 12 10 6 5 6 9 11 1 0 1 0 1 4 2 2 1 2 2 2 3 3 3 3 1 2 2 1 1 1 2 2 3 3 3 2 4 4 5 6 7 7 9 8 9 10 8 4 5 7 9 11
20 17 14 13 10 6 4 3 6 4 4 3 2 2 1 2 1 2 1 1 3 1 3 2 1 3 1 1 2 1 2 1 3 2 3 3 4 1 6 9 9 9 10 9 10 10 11 12 13 9 6 9 11 11
19 17 15 13 10 6 4 2 2 4 1 2 2 2 1 1 1 3 3 2 2 2 1 2 1 1 2 2 2 2 3 4 1 3 1 2 3 6 8 8 9 11 12 13 12 11 11 14 11 12 8 8 12 14
19 15 14 12 9 7 5 2 1 2 0 1 1 0 2 2 3 1 2 1 2 3 4 3 1 1 0 2 1 2 2 2 3 3 2 3 9 11 9 8 10 12 11 11 11 12 13 12 12 9 8 9 12 15
19 14 13 11 9 7 5 3 1 1 0 1 2 2 3 2 3 2 2 1 1 3 3 2 1 1 1 2 1 2 2 4 1 2 2 4 9 12 14 11 12 12 11 11 12 10 12 8 8 6 6 9 11 14
18 12 11 11 10 8 6 3 1 1 1 1 2 2 1 2 1 2 2 1 2 3 1 0 1 1 1 2 2 4 2 1 2 1 5 9 11 11 12 12 10 12 14 11 11 11 8 7 9 12 11 10 10 11
17 4 13 12 10 8 5 2 2 2 1 2 1 1 2 2 2 1 1 3 5 3 2 1 2 2 2 2 3 2 2 1 4 7 8 9 11 11 10 10 11 9 6 6 2 7 12 14 15 16 15 14 15 15
4 11 14 14 13 10 4 3 2 2 2 1 1 2 1 1 0 1 1 2 3 3 2 1 2 3 3 3 2 1 3 6 7 9 10 10 10 13 11 7 2 1 4 8 12 14 16 18 18 17 17 17 19 19
15 14 15 14 7 3 3 3 2 1 0 1 1 1 1 1 1 2 2 3 3 1 2 2 2 3 3 2 4 7 7 8 8 9 9 13 12 3 7 8 8 10 12 14 14 14 16 17 17 17 15 19 14 18
14 12 10 6 2 2 2 1 1 2 0 2 0 2 2 2 3 2 2 2 2 2 2 3 3 2 2 4 5 6 7 7 6 6 4 4 8 10 10 9 9 13 18 19 18 21 19 20 21 21 22 16 19 19
8 7 4 2 1 1 1 1 1 1 1 1 1 2 2 2 0 2 3 3 2 1 2 2 2 3 7 10 13 13 12 11 4 1 2 2 7 12 12 13 14 16 17 17 17 17 19 20 19 21 21 21 22 23
4 3 2 1 1 1 1 1 1 1 0 1 1 2 1 1 2 2 3 2 2 2 2 2 5 6 6 6 10 3 6 10 11 11 12 11 6 7 11 13 16 15 17 16 17 18 19 22 23 22 24 23 23 23
3 2 1 2 1 2 1 0 1 2 0 1 1 1 1 1 2 4 1 1 2 4 6 7 10 11 8 3 11 14 14 13 10 11 13 16 17 18 19 18 18 19 18 18 21 22 21 22 22 21 25 23 22 21
2 2 2 2 1 0 0 2 1 1 1 1 1 1 1 2 3 2 2 2 3 10 1 4 4 5 8 10 7 11 14 16 18 19 18 19 16 17 19 18 19 19 19 20 22 20 19 20 21 22 20 20 20 19
2 3 1 2 2 1 2 1 1 0 0 1 2 2 2 2 2 2 2 3 5 5 5 10 11 8 6 7 12 15 18 17 16 12 15 18 18 19 19 22 21 13 13 18 17 18 16 16 17 18 19 18 18 17
2 1 2 1 1 0 1 0 0 1 1 2 2 1 1 1 4 3 2 4 3 3 4 6 6 6 7 10 6 11 12 17 23 17 16 18 15 17 15 15 16 13 16 22 19 18 17 17 17 17 16 14 14 13
1 1 1 1 0 1 1 1 1 1 2 2 2 2 2 3 4 3 3 4 2 5 13 14 12 12 9 11 13 17 19 22 18 14 15 18 21 18 16 17 17 13 13 15 15 15 16 15 15 14 12 11 9 7
1 1 1 1 1 1 0 1 1 2 1 2 3 1 2 3 1 2 1 3 9 15 18 17 17 14 12 14 16 17 17 20 24 21 20 19 17 16 16 17 16 14 13 11 11 11 11 10 10 8 8 8 7 7
1 1 1 0 1 1 1 3 2 1 1 2 6 4 4 3 2 1 4 8 12 12 11 12 10 12 14 14 12 9 10 11 15 14 13 8 11 9 9 9 10 11 10 10 10 8 8 8 9 9 9 9 9 10
1 3 2 1 2 2 2 3 5 5 2 2 2 2 2 3 4 4 6 8 9 9 8 8 7 11 12 12 11 10 9 8 9 13 9 8 9 6 6 6 6 5 6 7 8 9 6 8 8 9 9 10 9 9
2 3 1 2 3 2 3 4 3 2 2 3 4 6 4 2 5 8 5 5 6 4 5 5 5 4 6 6 7 9 8 7 9 9 7 7 5 4 3 2 2 3 2 4 5 5 6 6 7 8 8 9 8 7
3 5 8 12 6 3 3 3 3 3 3 4 4 4 4 4 4 4 3 4 5 6 5 6 7 5 5 6 6 6 7 7 6 6 6 6 6 7 6 6 5 5 6 7 7 8 8 8 8 8 8 7 6 6
4 4 4 5 5 4 5 3 4 4 4 4 3 2 2 2 3 1 3 4 2 3 5 6 7 7 7 7 8 9 9 9 9 7 6 6 6 6 6 5 5 5 6 7 7 8 8 8 7 6 6 6 6 4
Wind_Direction
289 287 289 297 309 325 333 337 337 342 346 351 356 359 1 1 0 5 19 31 20 302 276 229 258 220 186 216 244 28 237 163 254 226 243 216 253 91 255 152 206 200 194 199 195 223 244 38 198 225 355 316 320 192
277 281 288 290 294 315 326 328 331 337 339 346 347 355 355 354 357 355 345 342 333 242 293 261 256 255 250 296 311 106 343 298 12 293 214 246 215 259 298 193 163 212 282 244 237 211 30 319 295 311 306 279 296 208
275 281 282 294 276 302 316 321 326 328 325 330 339 345 345 343 343 340 315 327 336 295 274 277 230 215 233 235 226 275 181 311 174 328 349 10 263 280 238 155 265 195 183 256 275 173 274 306 307 309 310 279 290 211
268 269 275 287 290 301 303 313 312 319 324 328 331 335 335 336 332 324 302 296 347 326 294 58 331 304 236 222 214 215 319 22 352 275 324 304 279 241 313 332 290 8 194 239 271 275 288 247 296 342 8 32 110 129
266 263 263 276 288 299 291 300 299 294 312 319 322 326 326 329 328 310 268 257 236 340 316 302 311 288 278 209 200 204 216 262 341 333 320 306 308 278 249 266 248 336 354 280 339 337 310 0 43 4 30 71 112 129
256 259 260 270 276 288 287 293 296 296 305 312 316 317 320 329 326 322 228 258 215 177 312 313 342 280 341 69 161 175 187 200 256 290 269 252 239 270 284 261 290 350 332 309 297 325 287 325 53 19 55 127 120 124
248 248 254 264 277 273 284 287 295 299 305 309 310 309 313 321 294 242 19 337 201 187 290 306 331 53 310 132 123 132 171 183 224 223 229 250 219 251 268 254 293 332 311 292 299 315 263 25 16 18 58 98 109 114
240 239 245 252 266 268 273 281 297 303 308 308 304 296 297 296 259 281 284 215 160 240 261 326 291 303 6 107 146 160 157 194 202 247 194 237 176 218 241 250 336 320 281 278 325 263 291 333 279 102 111 142 131 129
230 231 234 244 251 265 273 281 299 307 311 316 303 211 130 194 214 353 5 175 199 299 318 285 291 103 351 68 105 139 218 207 117 229 218 200 212 224 205 320 328 340 323 309 315 296 221 185 190 164 168 178 154 151
221 221 226 235 239 257 274 288 306 314 319 307 306 202 146 167 194 168 281 167 212 195 216 256 270 263 304 357 111 230 223 226 228 194 151 216 227 119 48 348 333 331 324 327 295 285 297 313 233 208 214 226 212 166
212 213 219 223 227 246 262 291 318 331 49 124 285 75 39 156 195 216 204 228 166 230 204 235 244 304 137 315 359 21 331 226 253 123 231 203 199 168 353 349 345 334 319 305 288 286 281 277 290 290 236 217 192 182
206 207 210 209 214 227 239 292 336 22 19 303 298 318 34 209 191 243 218 195 228 292 181 234 204 223 267 280 267 163 282 217 256 161 220 204 150 122 353 349 346 338 325 310 303 293 289 283 263 255 251 214 200 190
192 196 197 196 201 207 211 253 340 344 349 93 206 198 223 145 156 216 192 180 244 294 31 6 315 240 185 227 231 229 240 236 303 237 200 78 22 337 330 325 335 329 313 306 301 296 298 292 263 230 227 209 187 187
179 182 185 188 192 194 197 211 334 359 19 225 195 145 231 183 230 202 218 125 178 262 316 321 288 281 334 233 240 241 274 273 255 222 150 13 333 324 326 316 315 308 308 302 294 303 291 287 250 209 204 197 185 179
170 179 182 186 188 187 188 191 259 338 218 213 204 196 210 272 265 274 283 277 63 309 314 273 203 299 245 272 241 303 231 248 353 56 333 280 295 300 309 308 304 301 301 296 297 292 296 280 200 141 149 161 166 167
157 161 187 186 183 180 183 194 244 165 208 216 232 246 219 227 231 9 47 86 1 334 232 275 11 274 253 325 260 237 235 260 101 250 278 295 285 278 278 289 289 288 283 279 284 279 257 175 134 112 102 112 131 148
160 168 176 173 170 170 174 171 165 210 261 228 197 232 293 278 282 3 357 5 331 293 334 276 218 223 317 266 249 233 309 329 300 294 296 287 288 289 288 283 285 284 286 286 229 133 117 114 107 98 90 95 107 110
129 147 154 160 162 155 175 193 230 235 243 243 1 29 348 6 112 81 349 345 340 358 305 321 304 216 230 247 251 44 321 304 301 305 305 299 293 288 282 268 254 46 64 103 102 109 111 107 98 90 94 93 98 98
129 133 146 150 153 161 165 177 217 259 64 12 326 7 294 238 226 311 292 308 317 259 279 232 253 230 238 273 298 314 313 310 307 306 300 299 304 87 83 88 88 77 82 83 92 93 89 91 100 106 107 96 97 102
119 124 133 143 156 167 156 149 200 262 13 54 29 1 318 302 329 332 351 3 328 233 193 218 225 244 266 302 298 282 284 286 289 302 331 15 49 73 62 72 82 89 91 86 80 88 90 86 87 97 100 106 100 100
114 131 134 144 166 84 28 146 137 15 36 73 349 318 298 306 284 356 327 353 250 255 258 250 262 276 292 288 286 279 275 276 267 273 337 64 60 73 68 67 77 83 86 86 84 78 83 87 92 97 102 99 101 103
119 118 136 91 87 55 104 38 9 59 307 47 324 335 290 334 350 0 323 259 260 263 237 265 290 300 298 295 300 327 54 70 72 75 73 71 71 71 62 63 81 79 78 84 90 90 90 94 97 99 97 98 105 108
101 72 70 38 189 56 75 206 132 19 73 348 304 336 20 334 334 311 276 285 272 251 256 273 277 274 264 326 73 65 66 74 71 74 80 81 75 74 73 66 75 85 80 79 89 96 96 101 97 99 102 107 107 108
51 50 37 37 27 76 136 63 42 341 276 212 158 68 11 337 333 24 324 276 268 296 318 89 72 78 68 61 59 59 61 76 76 69 74 83 78 68 71 69 72 79 90 98 98 97 105 104 107 112 107 106 103 99
62 0 3 342 27 66 42 340 359 314 38 126 85 35 10 346 14 6 319 292 329 351 59 72 64 58 68 68 67 68 70 78 79 73 62 89 95 85 75 75 75 72 104 102 99 98 97 99 100 106 111 110 108 107
82 14 20 76 85 151 228 352 21 359 16 81 59 63 338 3 26 3 303 316 333 343 23 63 75 75 64 60 70 65 64 88 86 72 63 75 84 98 99 98 92 73 95 105 105 101 99 100 101 102 102 103 106 109
116 166 83 16 281 152 190 242 245 280 76 84 90 44 15 49 7 302 302 338 328 19 82 92 85 84 82 80 78 88 96 94 89 92 87 87 93 91 89 98 97 95 95 99 104 106 107 104 101 101 99 93 84 90
149 166 116 201 226 226 198 202 31 46 69 127 122 50 70 64 316 265 177 355 105 103 102 97 94 90 84 94 102 106 98 104 101 97 92 84 84 87 91 95 99 102 101 100 104 110 110 106 102 104 107 102 92 91
86 179 218 176 202 227 300 40 33 240 90 97 104 103 115 120 140 36 55 113 123 112 101 96 83 91 93 93 88 91 109 119 114 107 102 103 102 83 88 95 98 98 105 109 117 117 123 123 120 115 110 109 108 104
104 186 273 331 52 54 23 145 147 100 75 59 84 95 74 47 25 95 129 127 117 105 98 93 93 104 108 106 98 87 82 92 111 113 109 103 102 110 105 109 123 122 121 124 122 125 129 123 113 97 99 105 109 108
189 233 250 74 78 51 104 123 94 61 33 49 71 88 89 111 71 62 105 144 156 153 144 130 115 115 127 122 110 112 101 90 108 113 110 111 105 100 99 112 148 144 122 142 150 144 136 124 118 116 113 112 114 114
43 59 84 89 89 78 89 71 65 66 53 78 69 83 73 63 56 51 58 102 121 117 111 122 120 118 126 119 110 106 111 113 113 108 96 90 79 73 66 64 74 89 101 107 115 123 126 124 122 121 120 119 116 111
87 85 75 73 68 51 19 63 60 75 68 91 66 52 59 58 82 100 151 171 157 141 132 125 120 125 126 116 116 112 105 103 101 89 77 71 71 71 72 72 79 92 100 106 109 114 115 117 118 121 122 124 126 127
Height
847 847 847 846 846 844 842 840 839 837 835 833 830 827 825 823 822 820 819 817 817 813 804 804 803 798 797 796 792 794 791 789 784 782 779 774 776 774 772 770 769 766 770 770 771 774 777 758 754 758 757 749 748 746
844 844 844 844 844 842 841 839 838 837 835 832 830 828 826 824 822 820 819 818 817 817 807 804 802 800 801 800 798 798 796 793 792 787 786 785 779 778 780 770 772 772 767 760 764 755 759 758 758 758 759 758 750 750
841 841 841 841 841 840 839 838 837 836 834 832 830 827 826 824 822 821 819 817 816 815 805 801 794 796 794 796 800 798 797 796 794 795 789 787 785 784 777 773 773 769 770 769 767 760 759 758 757 757 756 753 749 750
837 838 838 838 838 838 837 835 834 834 832 830 828 826 825 823 822 820 819 817 818 818 807 791 793 793 792 792 794 798 799 798 797 795 791 786 783 787 779 780 776 767 770 767 762 756 757 754 757 759 757 755 753 754
833 834 835 835 835 835 834 833 832 831 831 829 827 825 823 821 820 818 817 816 816 819 809 797 793 791 791 791 793 796 799 800 796 792 792 789 788 786 781 781 773 771 770 765 759 761 760 758 760 760 758 758 758 759
829 830 831 831 832 832 831 830 829 828 828 827 825 823 821 819 818 816 815 815 815 816 816 799 795 792 791 790 792 795 798 800 798 793 790 788 790 789 785 778 776 773 772 772 768 765 763 761 761 760 760 760 760 762
824 826 827 828 828 829 829 828 826 825 825 824 822 820 819 818 817 818 815 817 815 816 814 800 790 789 791 791 793 795 797 795 793 790 789 785 785 785 786 782 774 774 773 773 769 767 763 760 762 762 761 763 763 765
819 821 823 824 825 826 826 825 824 823 822 820 818 817 816 816 816 816 815 815 816 817 815 808 793 788 789 785 785 793 791 793 791 785 787 784 785 783 782 775 777 779 776 767 764 765 763 762 762 762 764 766 764 766
814 817 819 821 822 822 822 822 821 820 818 816 813 813 815 816 816 816 814 814 816 820 810 806 795 788 789 787 790 791 791 786 790 783 781 781 777 778 774 778 778 777 777 770 764 762 762 761 762 762 763 766 764 767
809 812 815 817 819 819 820 819 818 817 815 814 814 814 813 815 815 816 816 817 817 814 814 811 805 791 792 786 785 787 790 784 783 777 780 777 772 777 778 779 778 775 773 770 764 760 758 758 760 762 760 761 763 766
804 808 811 814 816 817 817 817 816 814 813 813 813 812 814 814 815 814 811 811 809 807 806 801 800 792 793 786 784 789 785 786 780 777 778 775 776 777 778 777 776 775 773 771 768 764 763 763 762 762 762 763 764 766
800 804 808 811 813 814 815 815 814 813 814 815 815 815 814 814 812 810 807 806 802 795 795 793 792 794 790 792 787 789 784 786 778 778 775 773 776 777 777 774 772 771 770 768 765 762 760 759 759 760 760 761 764 766
796 800 805 808 810 811 813 814 814 814 813 814 815 813 809 811 811 804 799 797 798 794 791 791 792 791 792 791 788 787 785 778 777 773 767 774 777 775 774 773 770 769 768 764 761 758 755 754 754 755 756 758 762 766
793 798 802 805 808 810 812 813 813 813 814 813 810 815 806 806 801 795 795 794 796 796 792 792 789 789 790 787 784 784 778 778 772 766 772 781 779 775 774 772 769 766 765 762 759 755 754 751 750 751 753 755 758 763
792 797 801 804 806 809 811 812 812 813 813 810 809 810 801 797 796 797 796 796 796 796 792 789 789 792 786 785 784 781 779 773 771 782 788 782 779 776 772 769 767 763 761 758 755 753 751 749 749 751 753 755 758 762
793 798 800 803 805 808 810 811 812 813 813 812 811 801 798 798 794 795 795 796 797 794 794 793 790 788 784 788 785 775 772 769 782 782 779 777 775 772 769 767 764 761 758 754 752 751 750 749 751 753 755 758 760 764
794 795 798 802 805 808 810 811 812 812 809 807 800 802 801 800 798 798 798 797 798 792 789 791 790 787 786 787 779 774 772 780 780 777 774 772 769 765 763 760 758 755 753 751 750 749 750 752 754 757 760 763 765 768
794 796 799 802 805 808 809 810 811 809 804 802 799 802 801 801 799 799 799 799 797 795 794 788 792 787 784 782 774 778 780 778 776 772 769 766 762 759 757 755 754 754 752 751 751 752 754 756 757 762 767 769 770 774
795 798 800 804 806 807 808 810 810 803 801 802 803 804 803 802 802 801 800 799 799 799 798 794 794 784 780 780 779 780 779 777 775 770 766 761 756 754 753 754 756 755 754 755 756 758 760 762 764 768 772 773 777 778
800 802 803 805 806 806 806 807 808 804 799 803 803 802 802 801 800 799 799 799 799 796 794 792 787 782 783 783 784 783 779 777 773 768 764 759 759 758 758 758 759 759 760 762 763 762 765 763 768 773 775 781 781 784
802 804 804 805 805 805 806 805 804 805 804 803 805 803 800 799 800 799 799 800 795 793 790 788 786 786 786 784 781 777 773 771 768 767 766 764 764 763 764 763 763 764 765 768 770 772 773 775 779 782 785 787 789 792
803 804 804 805 805 805 805 807 805 807 805 805 803 803 802 800 801 801 802 798 794 790 789 787 785 785 782 779 776 773 771 770 769 769 769 768 768 769 770 770 770 772 774 777 778 780 782 785 788 790 791 795 797 800
804 804 804 805 804 805 808 806 804 806 804 805 804 802 803 803 802 802 798 798 794 789 787 784 782 780 779 777 776 775 774 773 773 774 774 774 775 777 777 779 780 780 782 786 787 789 792 795 796 797 800 803 805 808
804 805 805 805 805 805 804 805 807 806 807 803 803 803 804 804 804 802 802 798 792 785 780 780 780 780 780 779 779 779 779 779 779 779 781 781 783 785 786 787 788 789 791 793 795 797 799 801 802 804 806 809 811 813
808 810 808 810 805 805 809 807 807 806 804 801 804 805 805 804 804 804 804 797 791 787 785 784 784 784 784 785 786 787 787 786 787 789 791 791 792 793 795 796 797 799 800 800 802 804 806 807 809 811 813 815 817 819
810 808 808 806 809 809 807 805 806 802 799 800 803 804 804 803 803 806 802 798 795 793 791 790 790 791 791 792 793 794 795 795 794 796 799 798 799 798 800 801 804 807 807 807 808 810 812 813 815 817 819 821 822 823
807 807 807 808 808 808 807 807 805 802 796 799 802 804 804 804 810 807 803 800 798 797 797 797 797 797 799 800 800 800 800 800 801 804 805 805 805 806 808 808 810 813 814 814 815 816 817 819 820 822 823 824 825 826
807 807 806 808 807 807 804 801 798 796 797 798 799 802 803 809 812 806 805 803 801 801 801 802 803 803 804 804 805 806 806 807 808 809 811 812 813 814 814 815 816 817 817 818 819 820 822 823 824 825 826 827 828 828
807 808 808 803 802 802 799 795 797 794 794 794 793 795 799 803 805 805 805 806 806 806 807 808 809 809 809 810 811 811 813 813 813 813 814 816 818 820 820 820 820 821 821 822 823 823 824 825 826 826 827 828 829 831
803 805 800 796 796 795 795 794 792 795 798 798 798 800 802 804 806 806 807 808 809 810 811 812 812 813 813 814 815 816 816 817 817 818 818 819 821 822 822 823 823 824 824 824 824 825 826 826 827 828 829 831 832 833
801 798 794 794 795 796 797 798 799 799 799 799 800 801 805 807 809 809 810 810 811 812 813 814 815 816 817 817 818 818 819 820 820 821 822 823 823 823 824 824 824 824 825 825 826 827 828 828 829 831 832 833 834 835
798 796 793 794 796 797 796 798 800 801 803 802 805 805 806 807 810 812 813 813 813 813 814 816 817 818 818 819 820 820 821 822 823 824 824 825 825 825 825 825 826 826 826 827 828 829 830 831 832 833 834 835 836 837
802 800 799 799 800 801 803 802 804 806 806 808 810 810 811 811 812 814 814 815 816 816 817 818 819 820 821 822 823 823 824 825 826 827 827 827 828 828 828 828 828 829 829 830 830 831 832 833 834 835 835 836 837 838